• In Lithuania
  • List of Countries
  • For 7 days
  • Water Temperature
  • Satellite Maps
  • Weather Map
  • Weather Widgets
  • user-avatar
    Login

    Hourly Weather Ganja

    Today, 19 July, Thursday

    Time Temperature Precipitation Wind Pressure Humidity
    00:00 +26°C° 0 mm 2 mps 719 mmHg 56%
    01:00 +26°C° 0 mm 1 mps 719 mmHg 57%
    02:00 +26°C° 0 mm 1 mps 719 mmHg 59%
    03:00 +25°C° 0 mm 1 mps 719 mmHg 61%
    04:00 +26°C° 0 mm 1 mps 719 mmHg 60%
    05:00 +26°C° 0 mm 1 mps 719 mmHg 58%
    06:00 +26°C° 0 mm 2 mps 719 mmHg 57%
    07:00 +28°C° 0 mm 2 mps 719 mmHg 53%
    08:00 +29°C° 0 mm 2 mps 719 mmHg 50%
    09:00 +31°C° 0 mm 3 mps 718 mmHg 46%
    10:00 +32°C° 0 mm 2 mps 718 mmHg 43%
    11:00 +34°C° 0 mm 2 mps 718 mmHg 40%
    12:00 +35°C° 0 mm 2 mps 717 mmHg 37%
    13:00 +36°C° 0 mm 2 mps 717 mmHg 37%
    14:00 +37°C° 0 mm 2 mps 717 mmHg 36%
    15:00 +37°C° 0 mm 2 mps 716 mmHg 35%
    16:00 +37°C° 0 mm 2 mps 717 mmHg 36%
    17:00 +37°C° 0 mm 2 mps 717 mmHg 36%
    18:00 +36°C° 0 mm 2 mps 717 mmHg 37%
    19:00 +35°C° 0 mm 2 mps 717 mmHg 39%
    20:00 +32°C° 0 mm 2 mps 718 mmHg 40%
    21:00 +30°C° 0 mm 2 mps 718 mmHg 42%
    22:00 +30°C° 0 mm 2 mps 718 mmHg 43%
    23:00 +29°C° 0 mm 2 mps 718 mmHg 43%

    Tomorrow, 20 July, Friday

    Time Temperature Precipitation Wind Pressure Humidity
    00:00 +29°C° 0 mm 2 mps 718 mmHg 43%
    01:00 +28°C° 0 mm 2 mps 718 mmHg 45%
    02:00 +28°C° 0 mm 2 mps 718 mmHg 46%
    03:00 +27°C° 0 mm 2 mps 718 mmHg 48%
    04:00 +27°C° 0 mm 2 mps 718 mmHg 48%
    05:00 +28°C° 0 mm 2 mps 719 mmHg 49%
    06:00 +28°C° 0 mm 2 mps 719 mmHg 49%
    07:00 +30°C° 0 mm 2 mps 719 mmHg 45%
    08:00 +31°C° 0 mm 2 mps 719 mmHg 41%
    09:00 +34°C° 0 mm 2 mps 719 mmHg 36%
    10:00 +35°C° 0 mm 2 mps 718 mmHg 34%
    11:00 +36°C° 0 mm 3 mps 718 mmHg 31%
    12:00 +37°C° 0 mm 3 mps 718 mmHg 29%
    13:00 +38°C° 0 mm 3 mps 718 mmHg 28%
    14:00 +38°C° 0 mm 3 mps 717 mmHg 27%
    15:00 +39°C° 0 mm 3 mps 717 mmHg 27%
    16:00 +38°C° 0 mm 3 mps 717 mmHg 28%
    17:00 +38°C° 0 mm 3 mps 717 mmHg 30%
    18:00 +38°C° 0 mm 3 mps 717 mmHg 32%
    19:00 +36°C° 0 mm 3 mps 717 mmHg 35%
    20:00 +34°C° 0 mm 3 mps 718 mmHg 38%
    21:00 +32°C° 0 mm 4 mps 718 mmHg 42%
    22:00 +30°C° 0.1 mm 3 mps 718 mmHg 46%
    23:00 +29°C° 0.1 mm 3 mps 718 mmHg 49%

    Day after tomorrow, 21 July, Saturday

    Time Temperature Precipitation Wind Pressure Humidity
    00:00 +28°C° 0.1 mm 3 mps 718 mmHg 53%
    01:00 +28°C° 0 mm 2 mps 719 mmHg 55%
    02:00 +27°C° 0 mm 2 mps 719 mmHg 56%
    03:00 +27°C° 0 mm 1 mps 719 mmHg 58%
    04:00 +27°C° 0 mm 2 mps 719 mmHg 56%
    05:00 +27°C° 0 mm 2 mps 719 mmHg 55%
    06:00 +28°C° 0 mm 2 mps 719 mmHg 54%
    07:00 +29°C° 0 mm 3 mps 719 mmHg 50%
    08:00 +30°C° 0 mm 3 mps 719 mmHg 47%
    09:00 +33°C° 0 mm 3 mps 719 mmHg 44%
    10:00 +34°C° 0 mm 3 mps 719 mmHg 43%
    11:00 +35°C° 0 mm 3 mps 719 mmHg 41%
    12:00 +36°C° 0 mm 2 mps 719 mmHg 39%
    13:00 +36°C° 0.1 mm 2 mps 719 mmHg 38%
    14:00 +37°C° 0.1 mm 3 mps 718 mmHg 37%
    15:00 +37°C° 0.1 mm 3 mps 718 mmHg 36%
    16:00 +37°C° 0.1 mm 3 mps 718 mmHg 36%
    17:00 +37°C° 0.1 mm 3 mps 718 mmHg 37%
    18:00 +37°C° 0.1 mm 2 mps 718 mmHg 38%
    19:00 +35°C° 0.1 mm 3 mps 719 mmHg 41%
    20:00 +33°C° 0.1 mm 3 mps 720 mmHg 45%
    21:00 +30°C° 0.1 mm 3 mps 720 mmHg 48%
    22:00 +29°C° 0.1 mm 3 mps 720 mmHg 51%
    23:00 +29°C° 0.1 mm 2 mps 720 mmHg 53%

    22 July, Sunday

    Time Temperature Precipitation Wind Pressure Humidity
    00:00 +28°C° 0.1 mm 2 mps 720 mmHg 55%
    01:00 +27°C° 0 mm 2 mps 720 mmHg 57%
    02:00 +27°C° 0 mm 2 mps 720 mmHg 58%
    03:00 +26°C° 0 mm 2 mps 720 mmHg 60%
    04:00 +27°C° 0 mm 2 mps 720 mmHg 59%
    05:00 +27°C° 0 mm 3 mps 720 mmHg 59%
    06:00 +27°C° 0 mm 3 mps 720 mmHg 58%
    07:00 +28°C° 0 mm 3 mps 720 mmHg 53%
    08:00 +30°C° 0 mm 3 mps 720 mmHg 49%
    09:00 +31°C° 0 mm 3 mps 720 mmHg 45%
    10:00 +33°C° 0 mm 3 mps 720 mmHg 42%
    11:00 +34°C° 0 mm 3 mps 719 mmHg 40%
    12:00 +35°C° 0 mm 2 mps 719 mmHg 38%
    13:00 +36°C° 0.1 mm 3 mps 719 mmHg 37%
    14:00 +37°C° 0.1 mm 3 mps 718 mmHg 35%
    15:00 +37°C° 0.1 mm 3 mps 718 mmHg 33%
    16:00 +37°C° 0.1 mm 3 mps 718 mmHg 34%
    17:00 +37°C° 0.1 mm 3 mps 718 mmHg 34%
    18:00 +37°C° 0.1 mm 3 mps 718 mmHg 34%
    19:00 +35°C° 0 mm 4 mps 719 mmHg 37%
    20:00 +33°C° 0 mm 4 mps 719 mmHg 40%
    21:00 +32°C° 0 mm 4 mps 719 mmHg 43%
    22:00 +30°C° 0 mm 4 mps 719 mmHg 45%
    23:00 +29°C° 0 mm 3 mps 720 mmHg 47%

    23 July, Monday

    Time Temperature Precipitation Wind Pressure Humidity
    00:00 +28°C° 0 mm 3 mps 720 mmHg 49%
    01:00 +28°C° 0 mm 2 mps 719 mmHg 50%
    02:00 +27°C° 0 mm 2 mps 719 mmHg 51%
    03:00 +26°C° 0 mm 2 mps 719 mmHg 53%
    04:00 +27°C° 0 mm 2 mps 719 mmHg 52%
    05:00 +27°C° 0 mm 2 mps 720 mmHg 52%
    06:00 +27°C° 0 mm 2 mps 720 mmHg 52%
    07:00 +28°C° 0 mm 3 mps 719 mmHg 48%
    08:00 +30°C° 0 mm 3 mps 719 mmHg 44%
    09:00 +31°C° 0 mm 3 mps 719 mmHg 39%
    10:00 +33°C° 0 mm 3 mps 719 mmHg 38%
    11:00 +34°C° 0 mm 2 mps 718 mmHg 36%
    12:00 +36°C° 0 mm 2 mps 718 mmHg 34%
    13:00 +36°C° 0.1 mm 2 mps 718 mmHg 33%
    14:00 +37°C° 0.1 mm 3 mps 717 mmHg 32%
    15:00 +37°C° 0.1 mm 3 mps 717 mmHg 30%
    16:00 +37°C° 0.1 mm 3 mps 717 mmHg 31%
    17:00 +37°C° 0.1 mm 3 mps 717 mmHg 32%
    18:00 +37°C° 0.1 mm 3 mps 717 mmHg 33%
    19:00 +35°C° 0 mm 3 mps 718 mmHg 36%
    20:00 +33°C° 0 mm 3 mps 718 mmHg 38%
    21:00 +31°C° 0 mm 3 mps 719 mmHg 41%
    22:00 +30°C° 0 mm 3 mps 719 mmHg 43%
    23:00 +29°C° 0 mm 3 mps 719 mmHg 45%

    24 July, Tuesday

    Time Temperature Precipitation Wind Pressure Humidity
    00:00 +28°C° 0 mm 2 mps 719 mmHg 46%
    01:00 +28°C° 0 mm 2 mps 719 mmHg 48%
    02:00 +27°C° 0 mm 2 mps 719 mmHg 49%
    03:00 +26°C° 0 mm 2 mps 719 mmHg 51%
    04:00 +27°C° 0 mm 3 mps 720 mmHg 51%
    05:00 +27°C° 0 mm 3 mps 720 mmHg 52%
    06:00 +27°C° 0 mm 3 mps 720 mmHg 52%
    07:00 +29°C° 0 mm 3 mps 720 mmHg 48%
    08:00 +30°C° 0 mm 3 mps 720 mmHg 43%
    09:00 +33°C° 0 mm 3 mps 720 mmHg 39%
    10:00 +34°C° 0 mm 3 mps 720 mmHg 37%
    11:00 +35°C° 0 mm 2 mps 719 mmHg 35%
    12:00 +36°C° 0 mm 2 mps 719 mmHg 34%
    13:00 +37°C° 0 mm 2 mps 719 mmHg 33%
    14:00 +37°C° 0 mm 2 mps 719 mmHg 32%
    15:00 +38°C° 0 mm 2 mps 719 mmHg 31%
    16:00 +38°C° 0 mm 2 mps 719 mmHg 32%
    17:00 +37°C° 0 mm 2 mps 719 mmHg 32%
    18:00 +37°C° 0 mm 2 mps 719 mmHg 33%
    19:00 +36°C° 0 mm 2 mps 720 mmHg 35%
    20:00 +34°C° 0 mm 2 mps 720 mmHg 37%
    21:00 +31°C° 0 mm 2 mps 721 mmHg 40%
    22:00 +31°C° 0 mm 2 mps 721 mmHg 41%
    23:00 +30°C° 0 mm 2 mps 721 mmHg 42%
    Show more